Regional Weather Roundup
Issued by NWS

Home | Current Version | Previous Version | Graphics & Text | Print | Product List | Glossary On
Versions: 1 2 3 4 5 6 7 8 9 10 11 12 13 14 15 16 17 18 19 20 21 22 23 24 25 26 27 28 29 30 31 32 33 34 35 36 37 38 39 40 41 42 43 44 45 46 47 48 49 50
000
ASUS43 KLMK 201102
RWRKY
KENTUCKY REGIONAL WEATHER ROUNDUP
NATIONAL WEATHER SERVICE LOUISVILLE KY
700 AM EDT SUN APR 20 2014

NOTE "FAIR" INDICATES FEW OR NO CLOUDS BELOW 12,000 FEET
WITH NO SIGNIFICANT WEATHER AND/OR OBSTRUCTIONS TO VISIBILITY.

KYZ001>023-026-027-061>063-070>075-201200-
WESTERN AND SOUTH CENTRAL KENTUCKY

CITY           SKY/WX    TMP DP  RH WIND       PRES   REMARKS
PADUCAH        CLEAR     48  43  82 CALM      30.19R
HENDERSON      PTCLDY    45  41  87 CALM      30.21S
OWENSBORO      CLEAR     48  43  83 CALM      30.22R
HOPKINSVILLE   CLEAR     50  41  71 E2        30.21R
BOWLING GREEN  PTCLDY    43  38  82 CALM      30.21R
GLASGOW        NOT AVBL
$$

KYZ024-025-028>034-038-045-046-053-201200-
NORTH CENTRAL KENTUCKY

CITY           SKY/WX    TMP DP  RH WIND       PRES   REMARKS
LOUISVILLE/SDF MOCLDY    50  37  61 N5        30.24R
LOUISVILLE/LOU PTCLDY    50  38  63 CALM      30.25R
FORT KNOX      PTCLDY    47  37  69 NE5       30.21S
$$

KYZ035>037-039>044-047>052-055>060-089>105-201200-
NORTHEAST KENTUCKY

CITY           SKY/WX    TMP DP  RH WIND       PRES   REMARKS
LEXINGTON      CLEAR     47  34  60 E6        30.24R
COVINGTON      MOCLDY    45  33  63 N6        30.26R
FRANKFORT      CLEAR     42  36  79 N3        30.23R
$$

KYZ054-064>069-076>088-106>120-201200-
SOUTHEAST KENTUCKY

CITY           SKY/WX    TMP DP  RH WIND       PRES   REMARKS
JACKSON        PTCLDY    53  31  42 NE3       30.24R
LONDON         PTCLDY    44  37  76 CALM      30.23R
SOMERSET       NOT AVBL
MIDDLESBORO    PTCLDY    42  40  95 CALM      30.26R
MONTICELLO     SUNNY     37  35  92 CALM      30.24R
$$




USA.gov is the U.S. government's official web portal to all federal, state and local government web resources and services.